Terug naar catalogus

SL-14 R/B

ActiefPO
NORAD 20741·ROCKET BODY·🇷🇺 Russia

Gelanceerd Aug 8, 1990 vanaf Plesetsk Cosmodrome

Loading…

Volgende Passages (komende 24 uur)

TLE

VersSource: Space-Track

Epoch: Sep 14, 2026, 14:30 UTC

1 20741U 90070G   26257.60463132  .00000012  00000-0  11871-4 0  9992
2 20741  82.5815  13.8589 0035282 215.8325 155.4224 12.55718710654752

Volg SL-14 R/B in realtime met AllMySat

Download on the App Store